Location: Proctor
(47.8934°N, 114.3048°W)
Time: 21:22:54
(UTC+00:00)

Vanguard 2 Rocket - Pass Details

Date: 14 June 2024
Orbit: 555 x 3302 km, 32.9° (Epoch: 22 July)

Event Time Altitude Azimuth Distance (km) Brightness Sun altitude
Exits shadow 10:34:38 - 201° (SSW) 6,719 10.7 -8.5°
Reaches altitude 10° 10:37:44 10° 195° (SSW) 6,228 10.6 -8.2°
Maximum altitude 10:51:22 24° 151° (SSE) 4,640 10.3 -6.6°
Drops below altitude 10° 11:02:17 10° 105° (ESE) 4,963 11.1 -5.3°
Sets 11:06:33 0° 92° (E) 5,564 11.7 -4.8°
